Regional Weather Roundup
Issued by NWS

Home | Current Version | Previous Version | Text Only | Print | Product List | Glossary Off
Versions: 1 2 3 4 5 6 7 8 9 10 11 12 13 14 15 16 17 18 19 20 21 22 23 24 25 26 27 28 29 30 31 32 33 34 35 36 37 38 39 40 41 42 43 44 45 46 47 48 49 50

000
ASUS45 KBOU 211307
RWRCO

WEATHER ROUNDUP FOR COLORADO
NATIONAL WEATHER SERVICE DENVER/BOULDER CO
600 AM MST FRI NOV 21 2014

NOTE: "FAIR" INDICATES FEW OR NO CLOUDS BELOW 12000 FEET WITH NO
SIGNIFICANT WEATHER AND/OR OBSTRUCTIONS TO VISIBILITY.

COZ001>005-013-030-031-211400-
...NORTHWEST COLORADO...

CITY           SKY/WX    TMP DP  RH WIND       PRES   REMARKS
CRAIG          CLEAR     17  13  84 W3        30.06R
HAYDEN         PTCLDY    25  16  68 SE10      30.04S WCI  15
MEEKER         CLEAR     23  19  85 CALM      30.05R
MOUNT WERNER   NOT AVBL
STEAMBOAT SPGS CLEAR     22  17  83 CALM      30.05S
WALDEN         CLOUDY    27  14  59 S9        30.02S WCI  17
$$

COZ006>008-011-211400-
...WEST CENTRAL VALLEYS...

CITY           SKY/WX    TMP DP  RH WIND       PRES   REMARKS
GRAND JUNCTION CLEAR     20  14  77 E5        30.07R WCI  13
MONTROSE       CLEAR     20  16  84 S7        30.10R WCI  11
EAGLE          CLOUDY    27  21  80 CALM      30.11R
RIFLE          CLEAR     22  17  81 E3        30.09R
DELTA          CLEAR     25  15  67 CALM      30.10R
NUCLA          CLEAR     25  21  86 E7        30.11S WCI  17
$$

COZ017>023-064>068-211400-
...SOUTHWEST COLORADO...

CITY           SKY/WX    TMP DP  RH WIND       PRES   REMARKS
DURANGO        PTCLDY    18  15  88 NE5       30.06S WCI  11
CORTEZ         CLEAR     22  19  89 CALM      30.06R
PAGOSA SPRINGS PTCLDY    21  13  72 CALM      30.09R
TELLURIDE      PTCLDY    23  16  73 SE5       30.10S WCI  17
WOLF CREEK PAS CLEAR     19  10  68 SW18      30.10R WCI   4
$$

COZ009-010-012-014-032>034-037-058>063-211400-
...CENTRAL COLORADO...

CITY           SKY/WX    TMP DP  RH WIND       PRES   REMARKS
ASPEN          CLOUDY    23  15  71 SW7       30.06R WCI  15
BUENA VISTA    NOT AVBL
COPPER MTN     CLOUDY    21  12  68 SW6       30.07S WCI  14
BERTHOUD PASS  FAIR      12   7  79 NW23G30   30.05S WCI  -7
COTTONWOOD PAS CLEAR     32  14  47 N9        30.04R WCI  24
GUNNISON       PTCLDY    10   5  79 CALM      30.15R
KREMMLING      CLOUDY    19  16  86 CALM      30.09S
LEADVILLE      CLOUDY    23  12  62 NE6       30.04R WCI  16
MONARCH PASS   PTCLDY    14  12  92 MISG      30.15S
SALIDA         CLEAR     30  14  50 NW6       30.11R WCI  24
SUNLIGHT       CLEAR     21  18  86 CALM      30.09S
WILKERSON PASS PTCLDY    21   9  58 NW8G17    30.06R WCI  12
$$

COZ069>075-211400-
...SAN LUIS VALLEY/SANGRE DE CRISTO MOUNTAINS...

CITY           SKY/WX    TMP DP  RH WIND       PRES   REMARKS
ALAMOSA        MOCLDY     7   3  84 CALM      30.07S
LA VETA PASS   PTCLDY    21  12  68 S9G18     30.03F WCI  11
SAGUACHE       PTCLDY    21  14  73 NW14      30.09R WCI   8
$$

COZ035-036-038>040-211400-
...NORTHERN COLORADO FRONT RANGE...

CITY           SKY/WX    TMP DP  RH WIND       PRES   REMARKS
DENVER INTL AP PTCLDY    32  21  64 SW8       29.94S WCI  25
DMNS CITY PARK   N/A     32  19  58 SW2G13    29.96S
AURORA         PTCLDY    33  18  55 S8        29.96S WCI  25
FRONT RANGE AP PTCLDY    32  25  74 S14       29.95S WCI  22
ERIE MUNI ARPT CLEAR     24  22  91 SW3       29.95R
BOULDER MUN AP CLEAR     32  21  64 CALM      29.94R
CENTENNIAL     CLEAR     27  19  72 SE5       29.95S WCI  22
BROOMFIELD     PTCLDY    37  18  44 W6        29.95S
FORT COLLINS   MOCLDY    27  21  80 CALM      29.95S
LONGMONT       MOCLDY    24  20  83 SW3       29.96S
$$

COZ041-046-047-076>085-087-088-211400-
...PIKES PEAK/PALMER DIVIDE AND SOUTHERN FOOTHILLS...

CITY           SKY/WX    TMP DP  RH WIND       PRES   REMARKS
COLO. SPRINGS  CLEAR     26  17  68 N9        29.97S WCI  17
A. F. ACADEMY  CLEAR     22  13  69 N10       29.96S WCI  11
ELLICOTT       CLEAR     24  17  74 CALM      29.96S
FALCON         NOT AVBL
FORT CARSON    CLEAR     26  19  74 N8        29.95S WCI  18
LIMON          CLEAR     19  16  88 CALM      29.97R
MONUMENT HILL  CLEAR     28  14  54 W5        29.97R WCI  23
TRINIDAD       CLEAR     28  19  69 W12       29.98R WCI  18
$$

COZ042>045-048>051-090-091-211400-
...NORTHEAST COLORADO...

CITY           SKY/WX    TMP DP  RH WIND       PRES   REMARKS
GREELEY ARPT   CLOUDY    25  18  74 CALM      29.96S
AKRON          PTCLDY    27  20  75 W10       29.93S WCI  17
BURLINGTON     PTCLDY    26  22  84 SW9       29.98S WCI  17
WRAY           MOCLDY    32  24  73 S5        29.97S WCI  27
STERLING       CLOUDY    28  25  86 CALM      29.95R
HOLYOKE        PTCLDY    27  19  74 SW8       29.97S WCI  18
FORT MORGAN    PTCLDY    28  19  70 W8        29.95S WCI  20
$$

COZ086-089-092>099-211400-
...SOUTHEAST COLORADO...

CITY           SKY/WX    TMP DP  RH WIND       PRES   REMARKS
PUEBLO         CLEAR     25  22  88 CALM      29.97S
LA JUNTA       CLEAR     26  23  88 W7        29.98R WCI  18
LAMAR          CLEAR     23  22  96 VRB3      29.98R
SPRINGFIELD      N/A     25  22  88 SW8       29.98S WCI  16
$$



USA.gov is the U.S. government's official web portal to all federal, state and local government web resources and services.